Jackson, TN

1:02 PM CDT on July 27, 2017 (GMT -0500)
McKellar-Sipes Regional

Weather History for KMKL - January, 2014

Change the Weather History Date:

Tuesday, January 14, 2014

  Actual Average Record
Temperature  
Mean Temperature 45 °F 38 °F  
Max Temperature 60 °F 48 °F 71 °F (1960)
Min Temperature 30 °F 28 °F 7 °F (1982)
Degree Days  
Heating Degree Days 20 27  
Month to date heating degree days 414 378  
Since 1 July heating degree days 1971 1796  
Cooling Degree Days 0 0  
Month to date cooling degree days 0 0  
Year to date cooling degree days 0 0  
Moisture  
Dew Point 32 °F    
Average Humidity 64    
Maximum Humidity 92    
Minimum Humidity 35    
Precipitation  
Precipitation T in 0.13 in 1.76 in (1951)
Month to date precipitation 3.01 1.80  
Year to date precipitation 3.01 1.80  
Snow  
Snow 0.00 in - - ()
Month to date snowfall T  
Snow Depth 0.00 in    
Sea Level Pressure  
Sea Level Pressure 29.97 in    
Wind  
Wind Speed 8 mph (WSW)    
Max Wind Speed 22 mph    
Max Gust Speed 28 mph    
Visibility 10 miles    
Events Rain    
T = Trace of Precipitation, MM = Missing Value Source: NWS Daily Summary

Daily Weather History Graph

Daily Weather History Graph

Search for Another Location

Airport or City:

Trip Planner

Search our weather history database for the weather conditions in past years. The results will help you decide how hot, cold, wet, or windy it might be!

Date:

Astronomy

Jan. 14, 2014 Rise Set
Actual Time 7:04 AM CST 5:05 PM CST
Civil Twilight 6:37 AM CST 5:32 PM CST
Nautical Twilight 6:05 AM CST 6:04 PM CST
Astronomical Twilight 5:35 AM CST 6:34 PM CST
Moon 4:09 PM CST (1/14) 5:40 AM CST (1/14)
Length of Visible Light 10h 55m
Length of Day
10h 00m
Waxing Gibbous, 98% of the Moon is Illuminated
Jan 14
Waxing Gibbous
Jan 15
Full
Jan 23
Last Quarter
Jan 30
New
Feb 6
First Quarter

Hourly Weather History & Observations

Time (CST) Temp. Windchill Dew Point Humidity Pressure Visibility Wind Dir Wind Speed Gust Speed Precip Events Conditions
12:53 AM 42.1 °F 37.7 °F 33.1 °F 70% 29.92 in 10.0 mi WNW 6.9 mph - N/A   Clear
1:53 AM 39.9 °F 35.1 °F 32.0 °F 73% 29.94 in 10.0 mi West 6.9 mph - N/A   Clear
2:53 AM 36.0 °F 32.1 °F 30.9 °F 82% 29.94 in 10.0 mi West 4.6 mph - N/A   Clear
3:53 AM 32.0 °F 27.5 °F 30.0 °F 92% 29.94 in 10.0 mi SSW 4.6 mph - N/A   Clear
4:53 AM 30.9 °F 26.2 °F 28.9 °F 92% 29.95 in 10.0 mi South 4.6 mph - N/A   Clear
5:53 AM 32.0 °F 25.6 °F 28.9 °F 88% 29.95 in 10.0 mi SSW 6.9 mph - N/A   Clear
6:53 AM 34.0 °F 28.8 °F 28.9 °F 82% 29.96 in 10.0 mi SSW 5.8 mph - N/A   Clear
7:53 AM 35.1 °F 30.1 °F 30.0 °F 82% 29.96 in 10.0 mi SSW 5.8 mph - N/A   Clear
8:53 AM 42.1 °F 37.7 °F 34.0 °F 73% 29.98 in 10.0 mi SSW 6.9 mph - N/A   Clear
9:53 AM 48.9 °F - 36.0 °F 61% 29.96 in 10.0 mi South 8.1 mph - N/A   Clear
10:53 AM 53.1 °F - 36.0 °F 52% 29.96 in 10.0 mi SW 12.7 mph - N/A   Clear
11:53 AM 55.9 °F - 35.1 °F 45% 29.91 in 10.0 mi SSW 11.5 mph - N/A   Clear
12:53 PM 59.0 °F - 33.1 °F 38% 29.88 in 10.0 mi SW 16.1 mph 21.9 mph N/A   Scattered Clouds
1:53 PM 57.9 °F - 32.0 °F 37% 29.88 in 10.0 mi West 17.3 mph 24.2 mph N/A   Clear
2:41 PM 57.2 °F - 28.4 °F 33% 29.90 in 2.0 mi West 17.3 mph 27.6 mph N/A   Overcast
2:48 PM 57.2 °F - 30.2 °F 36% 29.91 in 10.0 mi West 16.1 mph 26.5 mph N/A   Overcast
2:53 PM 57.0 °F - 30.0 °F 36% 29.91 in 10.0 mi West 16.1 mph 26.5 mph N/A   Overcast
3:53 PM 55.0 °F - 28.9 °F 37% 29.94 in 10.0 mi WNW 12.7 mph 19.6 mph N/A   Scattered Clouds
4:53 PM 51.1 °F - 30.9 °F 46% 29.98 in 10.0 mi WNW 16.1 mph - N/A   Partly Cloudy
5:53 PM 48.0 °F - 37.9 °F 68% 30.01 in 10.0 mi West 3.5 mph - 0.00 in Rain Light Rain
6:53 PM 46.9 °F - 37.0 °F 68% 30.04 in 10.0 mi WNW 3.5 mph - 0.00 in   Overcast
7:53 PM 46.0 °F 43.9 °F 37.0 °F 71% 30.05 in 10.0 mi WNW 4.6 mph - N/A   Overcast
8:53 PM 45.0 °F 42.6 °F 36.0 °F 71% 30.06 in 10.0 mi WNW 4.6 mph - N/A   Partly Cloudy
9:53 PM 43.0 °F 38.2 °F 30.9 °F 62% 30.08 in 10.0 mi NW 8.1 mph - N/A   Clear
10:53 PM 41.0 °F 36.4 °F 28.0 °F 60% 30.09 in 10.0 mi NNW 6.9 mph - N/A   Clear
11:53 PM 39.0 °F 34.0 °F 25.0 °F 57% 30.09 in 10.0 mi NW 6.9 mph - N/A   Clear